Flag for U.S.A. Weather past 2 weeks in Barrow, Alaska, U.S.A.

Now
33 °F

Fog.


Feels Like: 27 °F
Forecast: 29 / 36 °F
Wind: 7 mph from Northwest

Location: Post Rogers Memorial Airport

Current Time: Jul 25, 2014 at 10:50:45 AM

Latest Report: Jul 25, 2014 at 9:53 AM


Visibility: 4 mi

Pressure: 30.11 "Hg

Humidity: 92%

Dew point: 31 °F

Location of BarrowLocation

Historic Weather in Barrow — Graph

°F

Barrow temperature yesterday

Maximum temperature yesterday: 35 °F (at 10:53 AM)
Minimum temperature yesterday: 31 °F (at 3:53 AM)
Average temperature yesterday: 33 °F

Past Weeks' High & Low Weather Summary

 TemperatureHumidityPressure
High57 °F (Jul 16, 4:53 PM)100% (Jul 12, 1:03 AM)30.10 "Hg (Jul 12, 1:03 AM)
Low29 °F (Jul 15, 3:00 AM)63% (Jul 12, 4:53 PM)29.36 "Hg (Jul 21, 8:53 AM)
Average37 °F91%29.68 "Hg
* Reported Jul 10 8:02 AM — Jul 25 8:53 AM, Barrow, Weather by CustomWeather, © 2014

Note: Actual official high and low records may vary slightly from our data, if they occured in-between our weather recording intervals... More about our weather records

Advertising

Barrow weather history for previous 24 hours

 ConditionsComfort  
Time TempWeatherWind HumidityBarometerVisibility
8:53 AM
Jul 25
32 °FIce fog.6 mph96%30.10 "Hg3 mi
7:53 AM31 °FPartly sunny.8 mph96%30.08 "Hg10 mi
6:53 AM31 °FIce fog.9 mph96%30.07 "Hg3 mi
5:53 AM31 °FIce fog.8 mph96%30.06 "Hg4 mi
4:53 AM31 °FLow clouds.10 mph96%30.05 "Hg7 mi
3:53 AM31 °FIce fog.9 mph96%30.04 "Hg1 mi
2:53 AM31 °FIce fog.10 mph96%30.03 "Hg0 mi
1:53 AM32 °FLow clouds.9 mph96%30.02 "Hg10 mi
12:53 AM32 °FIce fog.9 mph96%30.01 "Hg4 mi
11:53 PM
Jul 24
32 °FLow clouds.9 mph96%29.99 "Hg7 mi
10:53 PM33 °FLow clouds.10 mph92%29.97 "Hg10 mi
9:53 PM34 °FPartly sunny.13 mph92%29.95 "Hg10 mi
8:53 PM34 °FBroken clouds.9 mph92%29.94 "Hg10 mi
7:53 PM34 °FBroken clouds.9 mph92%29.93 "Hg10 mi
6:53 PM34 °FLow clouds.9 mph92%29.91 "Hg10 mi
6:02 PM35 °FPartly sunny.10 mph100%29.90 "Hg10 mi
4:53 PM35 °FMore clouds than sun.9 mph92%29.89 "Hg10 mi
3:53 PM35 °FMore clouds than sun.9 mph92%29.87 "Hg10 mi
2:53 PM34 °FLow clouds.9 mph97%29.86 "Hg10 mi
1:53 PM35 °FMostly cloudy.9 mph96%29.85 "Hg10 mi
12:53 PM35 °FCloudy.10 mph100%29.83 "Hg10 mi
11:53 AM33 °FLow clouds.12 mph96%29.82 "Hg10 mi
10:53 AM35 °FLight snow. Low clouds.12 mph96%29.80 "Hg9 mi
Weather by CustomWeather, © 2014

See weather overviewHow to use our weather pages